Regional Weather Roundup
Issued by NWS

Home | Current Version | Previous Version | Text Only | Print | Product List | Glossary On
Versions: 1 2 3 4 5 6 7 8 9 10 11 12 13 14 15 16 17 18 19 20 21 22 23 24 25 26 27 28 29 30 31 32 33 34 35 36 37 38 39 40 41 42 43 44 45 46 47 48 49
000
ASUS46 KPQR 182310
RWROR

OREGON REGIONAL WEATHER ROUNDUP
NATIONAL WEATHER SERVICE PORTLAND OR
400 PM PDT SAT APR 18 2015

NOTE: "FAIR" INDICATES FEW OR NO CLOUDS BELOW 12,000 FEET WITH
NO SIGNIFICANT WEATHER AND/OR OBSTRUCTIONS TO VISIBILITY.

ORZ001>013-190000-
NORTHWEST OREGON


CITY           SKY/WX    TMP DP  RH WIND       PRES   REMARKS
ASTORIA        SUNNY     63  49  60 NW20      30.25F
NEWPORT        SUNNY     55  50  82 N20G28    30.24F
PORTLAND       MOSUNNY   75  42  30 NW12      30.19F
VANCOUVER WA   SUNNY     75  38  26 N8G20     30.18F
SCAPPOOSE      SUNNY     75  36  24 N12       30.19F
HILLSBORO      SUNNY     76  34  21 NE7       30.19F
AURORA         SUNNY     76  39  26 NE9       30.19F
MCMINNVILLE    SUNNY     75  43  31 N10       30.19F
SALEM          SUNNY     74  47  38 N13       30.17F
CORVALLIS      SUNNY     75  48  38 NE13      30.18F
EUGENE         SUNNY     69  52  54 N17       30.16F
$$

ORZ021-028-190000-
SOUTHWEST OREGON


CITY           SKY/WX    TMP DP  RH WIND       PRES   REMARKS
NORTH BEND     SUNNY     57  52  82 N22G32    30.17F
BROOKINGS      MOSUNNY   85  39  19 N8        29.98F
ROSEBURG       SUNNY     76  44  32 N12G17    30.11F
SEXTON SUMMIT  SUNNY     64  42  44 MISG      30.15F
MEDFORD        MOSUNNY   78  45  30 CALM      30.04F
$$

ORZ014>016-041-190000-
COLUMBIA GORGE


CITY           SKY/WX    TMP DP  RH WIND       PRES   REMARKS
TROUTDALE      SUNNY     77  42  28 NW6       30.17F
THE DALLES     SUNNY     77  28  16 NE6       30.20F
$$

ORZ029>031-041-044-049-050-061>064-502-503-505>511-190000-
EASTERN OREGON


CITY           SKY/WX    TMP DP  RH WIND       PRES   REMARKS
REDMOND        SUNNY     68  27  21 NW16G25   30.22F
BEND           SUNNY     64  27  24 N9G17     30.23F
PRINEVILLE     SUNNY     68  28  22 N10G17    30.21F
KLAMATH FALLS  SUNNY     69  27  20 E7        30.14F
LAKEVIEW       SUNNY     66  28  24 N13G22    30.18F
HERMISTON      SUNNY     73  24  16 VRB5      30.22F
PENDLETON      SUNNY     68  26  20 NW9       30.23F
JOHN DAY       SUNNY     66  24  20 N14       30.21F
MEACHAM        SUNNY     58  19  22 VRB5      30.27F
LA GRANDE      SUNNY     66  27  22 NW15      30.20S
BAKER CITY     SUNNY     65  25  22 NW23G30   30.18F
BURNS          SUNNY     69  18  14 NW14G21   30.17F
ROME           NOT AVBL
ONTARIO        SUNNY     75  23  14 N15G24    30.10F
$$


USA.gov is the U.S. government's official web portal to all federal, state and local government web resources and services.